TimeEDT,TemperatureF,Dew PointF,Humidity,Sea Level PressureIn,VisibilityMPH,Wind Direction,Wind SpeedMPH,Gust SpeedMPH,PrecipitationIn,Events,Conditions,WindDirDegrees,DateUTC
12:15 AM,50.0,41.9,74,30.30,10.0,East,4.6,-,N/A,,Clear,100,2013-05-05 04:15:00
12:35 AM,49.6,42.1,75,30.30,10.0,ESE,4.6,-,N/A,,Scattered Clouds,120,2013-05-05 04:35:00
12:55 AM,49.5,42.1,76,30.30,10.0,Calm,Calm,-,N/A,,Clear,0,2013-05-05 04:55:00
1:15 AM,49.3,41.9,76,30.30,10.0,ESE,5.8,-,N/A,,Clear,110,2013-05-05 05:15:00
1:35 AM,49.3,41.2,74,30.29,10.0,ESE,5.8,-,N/A,,Clear,110,2013-05-05 05:35:00
1:55 AM,49.1,41.0,74,30.28,10.0,ESE,4.6,-,N/A,,Scattered Clouds,120,2013-05-05 05:55:00
2:15 AM,48.9,41.2,75,30.27,10.0,ESE,4.6,-,N/A,,Scattered Clouds,110,2013-05-05 06:15:00
2:35 AM,48.7,41.4,76,30.27,10.0,East,5.8,-,N/A,,Scattered Clouds,100,2013-05-05 06:35:00
2:55 AM,48.7,41.0,75,30.27,10.0,ESE,5.8,-,N/A,,Mostly Cloudy,110,2013-05-05 06:55:00
3:15 AM,48.4,41.0,76,30.27,10.0,ESE,5.8,-,N/A,,Mostly Cloudy,110,2013-05-05 07:15:00
3:35 AM,48.2,40.5,75,30.27,10.0,ESE,5.8,-,N/A,,Mostly Cloudy,110,2013-05-05 07:35:00
4:15 AM,49.1,40.1,71,30.27,10.0,East,6.9,-,N/A,,Mostly Cloudy,100,2013-05-05 08:15:00
4:35 AM,49.1,39.4,69,30.27,10.0,East,9.2,-,N/A,,Overcast,90,2013-05-05 08:35:00
4:55 AM,48.2,38.3,69,30.27,10.0,East,9.2,-,N/A,,Mostly Cloudy,100,2013-05-05 08:55:00
5:15 AM,48.2,38.3,69,30.27,10.0,East,3.5,-,N/A,,Mostly Cloudy,100,2013-05-05 09:15:00
5:35 AM,48.2,38.3,69,30.27,10.0,SSE,4.6,-,N/A,,Overcast,150,2013-05-05 09:35:00
5:55 AM,48.2,38.8,70,30.27,10.0,Calm,Calm,-,N/A,,Overcast,0,2013-05-05 09:55:00
6:15 AM,49.3,39.2,68,30.27,10.0,Calm,Calm,-,N/A,,Overcast,0,2013-05-05 10:15:00
6:55 AM,49.5,40.1,70,30.27,10.0,NE,4.6,-,N/A,,Overcast,50,2013-05-05 10:55:00
7:15 AM,50.0,40.5,70,30.28,10.0,ENE,10.4,-,N/A,,Overcast,60,2013-05-05 11:15:00
7:35 AM,51.3,39.2,63,30.28,10.0,East,11.5,-,N/A,,Mostly Cloudy,80,2013-05-05 11:35:00
7:55 AM,51.6,37.8,59,30.28,10.0,East,10.4,-,N/A,,Scattered Clouds,80,2013-05-05 11:55:00
8:15 AM,52.0,38.7,60,30.29,10.0,East,9.2,-,N/A,,Clear,100,2013-05-05 12:15:00
8:35 AM,53.1,39.2,59,30.29,10.0,East,9.2,-,N/A,,Mostly Cloudy,90,2013-05-05 12:35:00
8:55 AM,54.3,38.8,56,30.29,10.0,East,11.5,-,N/A,,Mostly Cloudy,100,2013-05-05 12:55:00
9:15 AM,53.6,37.8,55,30.30,10.0,ENE,10.4,-,N/A,,Scattered Clouds,70,2013-05-05 13:15:00
9:35 AM,54.0,37.9,55,30.29,10.0,ESE,8.1,-,N/A,,Clear,110,2013-05-05 13:35:00
9:55 AM,54.9,38.1,53,30.29,10.0,East,8.1,-,N/A,,Clear,80,2013-05-05 13:55:00
10:15 AM,55.4,37.9,52,30.29,10.0,East,6.9,-,N/A,,Clear,80,2013-05-05 14:15:00
10:35 AM,55.4,38.3,53,30.29,10.0,ENE,6.9,-,N/A,,Clear,60,2013-05-05 14:35:00
10:55 AM,55.6,38.8,53,30.29,10.0,ENE,5.8,-,N/A,,Clear,60,2013-05-05 14:55:00
11:15 AM,56.7,38.7,51,30.29,10.0,East,5.8,-,N/A,,Clear,80,2013-05-05 15:15:00
11:35 AM,56.5,41.5,57,30.28,10.0,ESE,9.2,16.1,N/A,,Clear,110,2013-05-05 15:35:00
11:55 AM,56.5,42.1,59,30.29,10.0,SSE,8.1,-,N/A,,Clear,160,2013-05-05 15:55:00
12:15 PM,56.3,41.7,58,30.28,10.0,SE,8.1,16.1,N/A,,Scattered Clouds,140,2013-05-05 16:15:00
12:35 PM,56.7,41.9,58,30.28,10.0,SSE,8.1,-,N/A,,Scattered Clouds,160,2013-05-05 16:35:00
12:55 PM,57.2,41.4,55,30.27,10.0,SE,11.5,-,N/A,,Clear,140,2013-05-05 16:55:00
1:15 PM,57.6,41.9,56,30.27,10.0,SSE,11.5,-,N/A,,Clear,150,2013-05-05 17:15:00
1:35 PM,57.9,41.5,54,30.27,10.0,SE,9.2,16.1,N/A,,Clear,140,2013-05-05 17:35:00
1:55 PM,57.9,42.1,56,30.27,10.0,SSE,11.5,17.3,N/A,,Clear,150,2013-05-05 17:55:00
2:15 PM,57.6,42.1,56,30.26,10.0,SE,12.7,-,N/A,,Clear,140,2013-05-05 18:15:00
2:35 PM,58.6,42.3,55,30.26,10.0,SE,11.5,19.6,N/A,,Clear,140,2013-05-05 18:35:00
2:55 PM,57.9,42.1,56,30.26,10.0,SE,11.5,16.1,N/A,,Clear,130,2013-05-05 18:55:00
3:15 PM,57.6,42.3,57,30.26,10.0,SE,11.5,17.3,N/A,,Clear,140,2013-05-05 19:15:00
3:35 PM,57.6,41.7,56,30.26,10.0,SE,12.7,17.3,N/A,,Clear,130,2013-05-05 19:35:00
4:15 PM,57.2,42.4,58,30.26,10.0,SSE,10.4,17.3,N/A,,Scattered Clouds,150,2013-05-05 20:15:00
4:35 PM,56.5,42.8,60,30.25,10.0,SE,10.4,16.1,N/A,,Clear,130,2013-05-05 20:35:00
4:55 PM,56.7,42.6,59,30.25,10.0,SE,9.2,-,N/A,,Clear,140,2013-05-05 20:55:00
5:15 PM,56.5,42.1,59,30.25,10.0,ESE,10.4,-,N/A,,Clear,120,2013-05-05 21:15:00
5:35 PM,55.9,42.3,60,30.25,10.0,SE,10.4,-,N/A,,Clear,140,2013-05-05 21:35:00
6:15 PM,55.6,42.4,61,30.25,10.0,ESE,8.1,-,N/A,,Clear,120,2013-05-05 22:15:00
6:35 PM,55.2,41.9,61,30.25,10.0,SE,9.2,-,N/A,,Clear,140,2013-05-05 22:35:00
6:55 PM,54.7,41.9,62,30.25,10.0,SE,6.9,-,N/A,,Clear,140,2013-05-05 22:55:00
7:15 PM,54.0,41.9,64,30.25,10.0,SE,9.2,-,N/A,,Clear,140,2013-05-05 23:15:00
7:35 PM,53.6,41.9,65,30.25,10.0,ESE,6.9,-,N/A,,Clear,110,2013-05-05 23:35:00
7:55 PM,52.7,42.6,69,30.25,10.0,ESE,5.8,-,N/A,,Clear,120,2013-05-05 23:55:00
8:15 PM,52.0,42.8,71,30.25,10.0,ESE,4.6,-,N/A,,Clear,120,2013-05-06 00:15:00
8:35 PM,51.4,43.0,73,30.26,10.0,SE,6.9,-,N/A,,Clear,130,2013-05-06 00:35:00
8:55 PM,51.1,43.7,76,30.26,10.0,East,4.6,-,N/A,,Clear,100,2013-05-06 00:55:00
9:15 PM,50.9,43.7,76,30.26,10.0,ESE,4.6,-,N/A,,Clear,110,2013-05-06 01:15:00
9:35 PM,50.9,44.1,77,30.26,10.0,East,6.9,-,N/A,,Clear,100,2013-05-06 01:35:00
9:55 PM,50.5,43.9,78,30.26,10.0,ESE,5.8,-,N/A,,Clear,120,2013-05-06 01:55:00
10:15 PM,50.4,44.2,80,30.26,10.0,East,5.8,-,N/A,,Clear,100,2013-05-06 02:15:00
10:35 PM,50.0,44.1,80,30.26,10.0,ESE,5.8,-,N/A,,Clear,110,2013-05-06 02:35:00
10:55 PM,50.0,44.6,82,30.25,10.0,ESE,4.6,-,N/A,,Clear,120,2013-05-06 02:55:00
11:15 PM,49.6,44.6,83,30.25,10.0,SE,3.5,-,N/A,,Clear,130,2013-05-06 03:15:00
11:35 PM,49.6,44.8,83,30.25,10.0,SE,3.5,-,N/A,,Clear,130,2013-05-06 03:35:00
11:55 PM,49.5,44.8,84,30.25,10.0,ESE,3.5,-,N/A,,Clear,120,2013-05-06 03:55:00